Location: L�Adrech
(44.2500°N, 6.4167°E)
Time: 04:01:27
(UTC+00:00)

GEOS 3 Rocket - Pass Details

Date: 07 June 2020
Orbit: 772 x 847 km, 115.0° (Epoch: 04 July)

Event Time Altitude Azimuth Distance (km) Brightness Sun altitude
Rises 01:48:54 0° 142° (SE) 3,287 6.6 -16.1°
Reaches altitude 10° 01:51:10 10° 143° (SE) 2,371 5.8 -15.9°
Maximum altitude 01:56:19 86° 232° (SW) 821 3.6 -15.4°
Drops below altitude 10° 02:01:38 10° 322° (NW) 2,433 6.3 -14.9°
Sets 02:03:58 0° 323° (NW) 3,380 7.1 -14.6°
